Location: Three Forks Visitor's Center
(58.3672°N, 155.3776°W)
Time: 17:01:12
(UTC-09:00)

Envisat - Visible Passes

Search period start: 23 January 2018 00:00
Search period end: 02 February 2018 00:00
Orbit: 764 x 766 km, 98.2° (Epoch: 23 January)

Date Brightness Start Highest point End Pass type
(mag) Time Alt. Az. Time Alt. Az. Time Alt. Az.
23 Jan 5.9 08:13:14 10° NE 08:15:45 14° E 08:18:16 10° ESE visible
23 Jan 3.3 19:37:04 18° ESE 19:40:29 42° ENE 19:45:16 10° N visible
23 Jan 4.0 21:17:15 28° SSW 21:19:33 45° W 21:24:27 10° NNW visible
24 Jan 3.9 18:59:52 10° ESE 19:04:03 27° NE 19:08:15 10° N visible
24 Jan 3.0 20:39:49 27° S 20:42:40 79° WSW 20:47:47 10° NNW visible
24 Jan 5.5 22:20:01 13° WSW 22:22:33 18° W 22:25:55 10° NW visible
25 Jan 5.7 08:37:59 10° NE 08:41:46 20° E 08:45:30 10° SE visible
25 Jan 4.4 18:24:29 10° E 18:27:47 18° NE 18:31:04 10° N visible
25 Jan 2.9 20:02:23 19° SE 20:05:57 61° ENE 20:11:00 10° NNW visible
25 Jan 4.7 21:42:34 19° SW 21:45:21 30° W 21:49:51 10° NNW visible
26 Jan 6.2 08:02:49 10° ENE 08:04:25 11° ENE 08:06:00 10° E visible
26 Jan 3.5 19:24:56 11° ESE 19:29:25 37° ENE 19:34:04 10° N visible
26 Jan 3.7 21:05:07 21° S 21:08:20 53° W 21:13:21 10° NNW visible
26 Jan 5.9 22:46:55 10° W 22:48:35 11° WNW 22:50:16 10° WNW visible
27 Jan 4.1 18:49:04 10° ESE 18:53:02 23° NE 18:57:00 10° N visible
27 Jan 2.9 20:27:39 18° SSE 20:31:31 88° ENE 20:36:39 10° NNW visible
27 Jan 5.3 22:07:51 11° SW 22:11:15 21° W 22:15:03 10° NW visible
28 Jan 5.8 08:27:06 10° NE 08:30:28 17° E 08:33:48 10° SE visible
28 Jan 3.1 19:50:12 11° SE 19:54:52 52° ENE 19:59:49 10° N visible
28 Jan 4.4 21:30:23 15° SSW 21:34:07 36° W 21:38:48 10° NNW visible
29 Jan 3.7 19:13:55 10° ESE 19:18:23 32° NE 19:22:51 10° N visible
29 Jan 3.4 20:52:55 15° S 20:57:10 63° WSW 21:02:14 10° NNW visible
29 Jan 5.8 22:34:41 10° WSW 22:37:15 14° W 22:39:50 10° NW visible
30 Jan 4.2 18:38:20 10° E 18:42:02 21° NE 18:45:45 10° N visible
30 Jan 2.9 20:15:26 11° SSE 20:20:23 76° ENE 20:25:30 10° NNW visible
30 Jan 5.1 21:55:52 10° SW 21:59:59 24° W 22:04:07 10° NW visible
31 Jan 5.9 08:16:21 10° NE 08:19:09 15° E 08:21:57 10° ESE visible
31 Jan 3.3 19:38:58 10° SE 19:43:47 45° ENE 19:48:37 10° N visible
31 Jan 4.1 21:18:07 10° SSW 21:22:53 42° W 21:27:45 10° NNW visible
01 Feb 3.9 19:03:04 10° ESE 19:07:20 28° NE 19:11:37 10° N visible
01 Feb 3.1 20:40:55 10° S 20:46:00 74° WSW 20:51:08 10° NNW visible
01 Feb 5.6 22:22:46 10° WSW 22:25:56 16° W 22:29:08 10° NW visible
